When you browse on this site, cookies collect data to enhance your experience and personalize the content and advertising you see.
Visit our Privacy Policy to learn more. By continuing to use the site, you agree to this use of cookies and data.
  • în România
  • Lista ţărilor
  • Pe 7 zile
  • Temperatura apei
  • Hartă satelitară
  • Meteo pe hartă
  • Widget-uri
  • user-avatar
    Intrare

    Meteo pe oră la Storozhevka

    Astăzi, 25 Martie, Luni

    Timp Temperatura Precipitaţii Vânt Presiune Umiditate
    00:00 -2°C° 0.1 mm 4 m/s 747 mmHg 95%
    01:00 -2°C° 0.2 mm 5 m/s 746 mmHg 94%
    02:00 -4°C° 0.2 mm 6 m/s 746 mmHg 92%
    03:00 -5°C° 0 mm 8 m/s 745 mmHg 91%
    04:00 -6°C° 0 mm 7 m/s 745 mmHg 91%
    05:00 -7°C° 0 mm 7 m/s 745 mmHg 91%
    06:00 -7°C° 0 mm 7 m/s 745 mmHg 92%
    07:00 -6°C° 0 mm 7 m/s 745 mmHg 91%
    08:00 -4°C° 0 mm 6 m/s 745 mmHg 90%
    09:00 -3°C° 0 mm 7 m/s 745 mmHg 90%
    10:00 -2°C° 0 mm 6 m/s 746 mmHg 92%
    11:00 -2°C° 0 mm 6 m/s 746 mmHg 95%
    12:00 -2°C° 0 mm 6 m/s 746 mmHg 98%
    13:00 -2°C° 0 mm 6 m/s 747 mmHg 97%
    14:00 -2°C° 0 mm 6 m/s 747 mmHg 96%
    15:00 -1°C° 0 mm 6 m/s 748 mmHg 94%
    16:00 -2°C° 0 mm 6 m/s 748 mmHg 93%
    17:00 -1°C° 0 mm 5 m/s 749 mmHg 91%
    18:00 -2°C° 0 mm 5 m/s 749 mmHg 89%
    19:00 -2°C° 0 mm 5 m/s 750 mmHg 90%
    20:00 -2°C° 0 mm 5 m/s 751 mmHg 90%
    21:00 -3°C° 0 mm 4 m/s 751 mmHg 91%
    22:00 -4°C° 0 mm 4 m/s 752 mmHg 91%
    23:00 -5°C° 0 mm 4 m/s 752 mmHg 91%

    Mâine, 26 Martie, Marţi

    Timp Temperatura Precipitaţii Vânt Presiune Umiditate
    00:00 -6°C° 0 mm 3 m/s 753 mmHg 92%
    01:00 -6°C° 0 mm 3 m/s 753 mmHg 90%
    02:00 -6°C° 0 mm 3 m/s 753 mmHg 89%
    03:00 -7°C° 0 mm 3 m/s 754 mmHg 88%
    04:00 -5°C° 0 mm 2 m/s 754 mmHg 87%
    05:00 -5°C° 0 mm 2 m/s 754 mmHg 85%
    06:00 -5°C° 0 mm 2 m/s 754 mmHg 84%
    07:00 -3°C° 0 mm 2 m/s 754 mmHg 84%
    08:00 -2°C° 0 mm 3 m/s 754 mmHg 85%
    09:00 -1°C° 0 mm 4 m/s 754 mmHg 85%
    10:00 -1°C° 0 mm 4 m/s 754 mmHg 90%
    11:00 -1°C° 0 mm 5 m/s 753 mmHg 94%
    12:00 0°C° 0 mm 5 m/s 753 mmHg 99%
    13:00 0°C° 0.6 mm 5 m/s 752 mmHg 99%
    14:00 -1°C° 0.6 mm 6 m/s 752 mmHg 99%
    15:00 +1°C° 0.6 mm 6 m/s 751 mmHg 99%
    16:00 +1°C° 0.3 mm 6 m/s 751 mmHg 99%
    17:00 +1°C° 0.3 mm 6 m/s 751 mmHg 98%
    18:00 +1°C° 0.3 mm 6 m/s 751 mmHg 97%
    19:00 +1°C° 0 mm 5 m/s 751 mmHg 96%
    20:00 +1°C° 0 mm 4 m/s 752 mmHg 95%
    21:00 +1°C° 0 mm 3 m/s 752 mmHg 93%
    22:00 +1°C° 0 mm 3 m/s 752 mmHg 94%
    23:00 +1°C° 0 mm 3 m/s 753 mmHg 94%

    Poimâine, 27 Martie, Miercuri

    Timp Temperatura Precipitaţii Vânt Presiune Umiditate
    00:00 +2°C° 0 mm 2 m/s 753 mmHg 94%
    01:00 +2°C° 0.3 mm 2 m/s 753 mmHg 96%
    02:00 +2°C° 0.3 mm 2 m/s 753 mmHg 97%
    03:00 +2°C° 0.3 mm 2 m/s 752 mmHg 98%
    04:00 +2°C° 1 mm 2 m/s 752 mmHg 98%
    05:00 +1°C° 1 mm 3 m/s 752 mmHg 98%
    06:00 +1°C° 1 mm 3 m/s 752 mmHg 98%
    07:00 +1°C° 0.9 mm 3 m/s 752 mmHg 97%
    08:00 0°C° 0.9 mm 4 m/s 752 mmHg 97%
    09:00 0°C° 0.9 mm 5 m/s 751 mmHg 96%
    10:00 0°C° 0.8 mm 5 m/s 752 mmHg 96%
    11:00 0°C° 0.8 mm 5 m/s 752 mmHg 97%
    12:00 0°C° 0.8 mm 5 m/s 752 mmHg 97%
    13:00 0°C° 0.9 mm 4 m/s 752 mmHg 98%
    14:00 +1°C° 0.9 mm 3 m/s 752 mmHg 98%
    15:00 +1°C° 0.9 mm 3 m/s 752 mmHg 98%
    16:00 +1°C° 0.7 mm 3 m/s 752 mmHg 98%
    17:00 +2°C° 0.7 mm 2 m/s 752 mmHg 98%
    18:00 +2°C° 0.7 mm 2 m/s 752 mmHg 98%
    19:00 +1°C° 0.6 mm 3 m/s 752 mmHg 97%
    20:00 0°C° 0.6 mm 3 m/s 753 mmHg 96%
    21:00 0°C° 0.6 mm 3 m/s 753 mmHg 95%
    22:00 -1°C° 0.3 mm 4 m/s 753 mmHg 94%
    23:00 -1°C° 0.3 mm 4 m/s 753 mmHg 93%

    28 Martie, Joi

    Timp Temperatura Precipitaţii Vânt Presiune Umiditate
    00:00 -1°C° 0.3 mm 4 m/s 753 mmHg 92%
    01:00 -2°C° 0 mm 4 m/s 753 mmHg 91%
    02:00 -3°C° 0 mm 4 m/s 753 mmHg 90%
    03:00 -5°C° 0 mm 4 m/s 753 mmHg 89%
    04:00 -5°C° 0 mm 4 m/s 753 mmHg 89%
    05:00 -7°C° 0 mm 4 m/s 754 mmHg 89%
    06:00 -8°C° 0 mm 4 m/s 754 mmHg 88%
    07:00 -5°C° 0 mm 4 m/s 754 mmHg 87%
    08:00 -4°C° 0 mm 4 m/s 754 mmHg 86%
    09:00 -3°C° 0 mm 4 m/s 755 mmHg 84%
    10:00 -3°C° 0 mm 4 m/s 755 mmHg 84%
    11:00 -2°C° 0 mm 4 m/s 755 mmHg 85%
    12:00 -1°C° 0 mm 4 m/s 755 mmHg 85%
    13:00 -1°C° 0 mm 5 m/s 755 mmHg 85%
    14:00 -1°C° 0 mm 5 m/s 755 mmHg 84%
    15:00 -1°C° 0 mm 5 m/s 756 mmHg 84%
    16:00 -2°C° 0 mm 4 m/s 756 mmHg 85%
    17:00 -3°C° 0 mm 4 m/s 756 mmHg 86%
    18:00 -3°C° 0 mm 4 m/s 756 mmHg 87%
    19:00 -4°C° 0 mm 3 m/s 756 mmHg 87%
    20:00 -4°C° 0 mm 3 m/s 757 mmHg 87%
    21:00 -5°C° 0 mm 3 m/s 757 mmHg 87%
    22:00 -5°C° 0 mm 3 m/s 757 mmHg 87%
    23:00 -5°C° 0 mm 4 m/s 757 mmHg 87%

    29 Martie, Vineri

    Timp Temperatura Precipitaţii Vânt Presiune Umiditate
    00:00 -5°C° 0 mm 4 m/s 756 mmHg 87%
    01:00 -5°C° 0 mm 4 m/s 756 mmHg 88%
    02:00 -5°C° 0 mm 4 m/s 756 mmHg 90%
    03:00 -5°C° 0 mm 4 m/s 756 mmHg 92%
    04:00 -5°C° 0 mm 4 m/s 756 mmHg 91%
    05:00 -5°C° 0 mm 4 m/s 756 mmHg 91%
    06:00 -4°C° 0 mm 4 m/s 756 mmHg 91%
    07:00 -5°C° 0 mm 5 m/s 756 mmHg 90%
    08:00 -5°C° 0 mm 5 m/s 756 mmHg 89%
    09:00 -4°C° 0 mm 5 m/s 755 mmHg 88%
    10:00 -4°C° 0 mm 5 m/s 755 mmHg 86%
    11:00 -3°C° 0 mm 6 m/s 754 mmHg 84%
    12:00 -3°C° 0 mm 6 m/s 754 mmHg 81%
    13:00 -2°C° 0 mm 6 m/s 753 mmHg 80%
    14:00 -2°C° 0 mm 6 m/s 752 mmHg 79%
    15:00 -1°C° 0 mm 6 m/s 752 mmHg 78%
    16:00 -2°C° 0.1 mm 6 m/s 751 mmHg 78%
    17:00 -2°C° 0.1 mm 6 m/s 750 mmHg 78%
    18:00 -2°C° 0.1 mm 6 m/s 749 mmHg 78%
    19:00 -2°C° 0.2 mm 6 m/s 749 mmHg 81%
    20:00 -2°C° 0.2 mm 6 m/s 748 mmHg 84%
    21:00 -2°C° 0.2 mm 6 m/s 747 mmHg 86%
    22:00 -2°C° 0.3 mm 6 m/s 747 mmHg 88%
    23:00 -1°C° 0.3 mm 5 m/s 746 mmHg 90%

    30 Martie, Sâmbătă

    Timp Temperatura Precipitaţii Vânt Presiune Umiditate
    00:00 -1°C° 0.3 mm 4 m/s 746 mmHg 92%
    01:00 0°C° 0 mm 3 m/s 746 mmHg 93%
    02:00 -1°C° 0 mm 2 m/s 746 mmHg 94%
    03:00 -1°C° 0 mm 2 m/s 746 mmHg 95%
    04:00 -1°C° 0 mm 2 m/s 747 mmHg 95%
    05:00 -1°C° 0 mm 2 m/s 747 mmHg 95%
    06:00 -1°C° 0 mm 3 m/s 748 mmHg 95%
    07:00 0°C° 0 mm 3 m/s 748 mmHg 95%
    08:00 0°C° 0 mm 3 m/s 749 mmHg 96%
    09:00 0°C° 0 mm 3 m/s 749 mmHg 96%
    10:00 0°C° 0 mm 3 m/s 750 mmHg 96%
    11:00 +1°C° 0 mm 3 m/s 750 mmHg 96%
    12:00 +1°C° 0 mm 3 m/s 751 mmHg 96%
    13:00 +1°C° 0 mm 3 m/s 751 mmHg 95%
    14:00 +1°C° 0 mm 3 m/s 752 mmHg 95%
    15:00 +1°C° 0 mm 3 m/s 752 mmHg 95%
    16:00 +1°C° 0 mm 3 m/s 753 mmHg 95%
    17:00 +1°C° 0 mm 3 m/s 753 mmHg 95%
    18:00 0°C° 0 mm 3 m/s 754 mmHg 95%
    19:00 0°C° 0 mm 3 m/s 754 mmHg 94%
    20:00 0°C° 0 mm 3 m/s 755 mmHg 93%
    21:00 -1°C° 0 mm 2 m/s 755 mmHg 92%
    22:00 -1°C° 0 mm 2 m/s 755 mmHg 92%
    23:00 -2°C° 0 mm 2 m/s 755 mmHg 92%
    Arată mai mult